GW2443 Weather Reports


Display with metric or nautical units.
time (UTC)temp
F
wind
direction
speed
MPH
gust
MPH
rain 1hr
in
rain 24hr
in
rain mn
in
humidity
%
barometer
mb
20260906143108 67 0 0.0 1.0 0.00 0.00 0.00 91 1020.5
20260906142532 67 0 0.0 1.0 0.00 0.00 0.00 91 1020.6
20260906142030 67 0 0.0 3.0 0.00 0.00 0.00 91 1020.4
20260906141553 67 0 0.0 4.0 0.00 0.00 0.00 91 1020.4
20260906141028 67 156 1.0 4.0 0.00 0.00 0.00 91 1020.4
20260906140533 67 0 0.0 3.0 0.00 0.00 0.00 91 1020.5
20260906135529 67 0 0.0 3.0 0.00 0.00 0.00 91 1020.5
20260906135029 66 0 1.0 3.0 0.00 0.00 0.00 91 1020.3
20260906134555 66 0 0.0 3.0 0.00 0.00 0.00 92 1020.3
20260906134030 66 0 0.0 3.0 0.00 0.00 0.00 92 1020.3
20260906133532 65 0 1.0 3.0 0.00 0.00 0.00 92 1020.4
20260906133101 65 0 0.0 2.0 0.00 0.00 0.00 92 1020.3
20260906132531 65 0 0.0 3.0 0.00 0.00 0.00 93 1020.2
20260906132030 64 0 0.0 3.0 0.00 0.00 0.00 93 1020.4
20260906131556 64 0 0.0 3.0 0.00 0.00 0.00 93 1020.5
20260906131028 64 0 0.0 4.0 0.00 0.00 0.00 93 1020.3
20260906130527 63 0 0.0 4.0 0.00 0.00 0.00 93 1020.4
20260906130058 63 28 1.0 4.0 0.00 0.00 0.00 93 1020.3
20260906125530 63 0 0.0 4.0 0.00 0.00 0.00 93 1020.2
20260906125030 62 30 0.0 4.0 0.00 0.00 0.00 94 1020.3
20260906124555 62 5 1.0 4.0 0.00 0.00 0.00 93 1020.2
20260906124030 62 5 1.0 4.0 0.00 0.00 0.00 94 1020.2
20260906123531 61 23 2.0 4.0 0.00 0.00 0.00 93 1020.2
20260906123051 61 343 2.0 4.0 0.00 0.00 0.00 94 1020.2
20260906122533 61 5 1.0 4.0 0.00 0.00 0.00 94 1020.1
20260906122031 61 5 2.0 4.0 0.00 0.00 0.00 94 1019.9
20260906121549 61 23 1.0 4.0 0.00 0.00 0.00 94 1019.8
20260906121028 61 10 2.0 4.0 0.00 0.00 0.00 94 1019.8
20260906120530 61 34 2.0 4.0 0.00 0.00 0.00 94 1019.9
20260906120109 61 9 2.0 4.0 0.00 0.00 0.00 94 1019.8
20260906115530 60 26 0.0 4.0 0.00 0.00 0.00 94 1019.9
20260906115029 60 0 1.0 4.0 0.00 0.00 0.00 94 1019.8
20260906114555 60 355 1.0 4.0 0.00 0.00 0.00 94 1019.8
20260906114033 60 360 1.0 4.0 0.00 0.00 0.00 94 1020.0
20260906113530 60 20 2.0 4.0 0.00 0.00 0.00 94 1019.8
20260906113051 61 5 2.0 4.0 0.00 0.00 0.00 94 1019.7
20260906112529 60 20 2.0 4.0 0.00 0.00 0.00 94 1019.6
20260906112031 60 355 2.0 3.0 0.00 0.00 0.00 94 1019.3
20260906111559 61 16 1.0 3.0 0.00 0.00 0.00 94 1019.2
20260906111030 60 0 0.0 2.0 0.00 0.00 0.00 94 1019.0
20260906110532 61 0 0.0 4.0 0.00 0.00 0.00 94 1018.9
20260906110056 61 352 1.0 4.0 0.00 0.00 0.00 94 1018.9
20260906105528 61 5 0.0 2.0 0.00 0.00 0.00 94 1018.9
20260906105030 61 0 0.0 3.0 0.00 0.00 0.00 94 1018.9
20260906104551 61 360 0.0 3.0 0.00 0.00 0.00 94 1018.9
20260906104030 61 0 1.0 3.0 0.00 0.00 0.00 94 1018.9
20260906103529 61 360 1.0 3.0 0.00 0.00 0.00 94 1018.9
20260906103054 61 9 1.0 3.0 0.00 0.00 0.00 94 1018.9
20260906102531 61 9 0.0 3.0 0.00 0.00 0.00 94 1018.9
20260906102030 61 32 0.0 3.0 0.00 0.00 0.00 94 1019.0
20260906101547 61 28 0.0 3.0 0.00 0.00 0.00 94 1019.0
20260906101030 61 5 0.0 2.0 0.00 0.00 0.00 95 1018.9
20260906100533 61 0 0.0 2.0 0.00 0.00 0.00 95 1018.9
20260906100054 61 21 0.0 3.0 0.00 0.00 0.00 95 1018.9
20260906095530 61 0 0.0 3.0 0.00 0.00 0.00 95 1018.7
20260906095030 61 26 1.0 3.0 0.00 0.00 0.00 95 1019.0
20260906094552 62 0 0.0 2.0 0.00 0.00 0.00 95 1019.0
20260906094028 62 9 1.0 3.0 0.00 0.00 0.00 95 1019.1
20260906093529 62 10 0.0 3.0 0.00 0.00 0.00 95 1019.2
20260906093058 62 12 1.0 3.0 0.00 0.00 0.00 95 1019.1
20260906092530 62 0 1.0 3.0 0.00 0.00 0.00 95 1018.9
20260906092032 62 11 1.0 4.0 0.00 0.00 0.00 95 1018.9
20260906091548 62 30 1.0 4.0 0.00 0.00 0.00 95 1018.9
20260906091030 62 355 1.0 3.0 0.00 0.00 0.00 95 1018.9
20260906090530 62 14 1.0 3.0 0.00 0.00 0.00 95 1018.9
20260906090108 62 15 1.0 2.0 0.00 0.00 0.00 95 1018.8
20260906085530 62 23 0.0 2.0 0.00 0.00 0.00 95 1018.6
20260906085030 62 0 0.0 3.0 0.00 0.00 0.00 95 1018.5
20260906084551 63 0 1.0 3.0 0.00 0.00 0.00 95 1018.7
20260906084031 63 0 0.0 3.0 0.00 0.00 0.00 95 1018.8
20260906083531 63 0 0.0 3.0 0.00 0.00 0.00 94 1018.8
20260906083050 63 11 1.0 3.0 0.00 0.00 0.00 95 1018.9
20260906082531 63 360 1.0 3.0 0.00 0.00 0.00 95 1018.8
20260906082028 63 12 0.0 3.0 0.00 0.00 0.00 94 1018.8
20260906081554 63 17 1.0 3.0 0.00 0.00 0.00 94 1018.7
20260906081034 63 9 1.0 3.0 0.00 0.00 0.00 94 1018.6
20260906080530 63 16 0.0 2.0 0.00 0.00 0.00 94 1018.5
20260906080048 63 0 0.0 2.0 0.00 0.00 0.00 94 1018.6
20260906075533 63 0 0.0 2.0 0.00 0.00 0.00 94 1018.6
20260906075030 63 20 0.0 2.0 0.00 0.00 0.00 94 1018.5
20260906074552 63 0 0.0 2.0 0.00 0.00 0.00 94 1018.6
20260906074033 63 0 0.0 2.0 0.00 0.00 0.00 95 1018.7
20260906073530 63 15 1.0 2.0 0.00 0.00 0.00 95 1018.6
20260906073049 63 0 0.0 2.0 0.00 0.00 0.00 94 1018.6
20260906072529 64 0 0.0 2.0 0.00 0.00 0.00 94 1018.6
20260906072032 64 0 0.0 1.0 0.00 0.00 0.00 94 1018.7
20260906071558 64 0 0.0 1.0 0.00 0.00 0.00 95 1018.5
20260906071031 64 0 0.0 1.0 0.00 0.00 0.00 95 1018.7
20260906070532 64 0 0.0 2.0 0.00 0.00 0.00 95 1018.7
20260906070058 64 0 0.0 2.0 0.00 0.00 0.00 94 1018.7
20260906065532 64 13 0.0 2.0 0.00 0.00 0.00 94 1018.8
20260906065027 64 9 0.0 2.0 0.00 0.00 0.00 94 1019.0
20260906064551 64 15 0.0 2.0 0.00 0.00 0.00 95 1018.9
20260906064029 64 0 0.0 2.0 0.00 0.00 0.00 95 1018.9
20260906063530 64 0 0.0 2.0 0.00 0.00 0.00 95 1019.1
20260906063050 65 0 0.0 1.0 0.00 0.00 0.00 94 1019.0
20260906062531 65 0 0.0 1.0 0.00 0.00 0.00 95 1018.9
20260906062030 64 0 0.0 1.0 0.00 0.00 0.00 95 1019.1
20260906061550 64 0 0.0 1.0 0.00 0.00 0.00 94 1019.1
20260906061030 64 0 0.0 0.0 0.00 0.00 0.00 94 1019.1
20260906060531 64 0 0.0 0.0 0.00 0.00 0.00 94 1018.9
20260906055531 65 0 0.0 0.0 0.00 0.00 0.00 94 1018.9
20260906055030 65 0 0.0 1.0 0.00 0.00 0.00 94 1018.8
20260906054556 65 0 0.0 1.0 0.00 0.00 0.00 94 1018.7
20260906054030 65 0 0.0 2.0 0.00 0.00 0.00 94 1018.8
20260906053528 65 0 0.0 2.0 0.00 0.00 0.00 94 1018.8
20260906053051 65 352 0.0 1.0 0.00 0.00 0.00 94 1018.8
20260906052530 65 0 0.0 0.0 0.00 0.00 0.00 94 1018.9
20260906052031 65 0 0.0 0.0 0.00 0.00 0.00 94 1018.9
20260906051553 65 0 0.0 0.0 0.00 0.00 0.00 93 1018.9
20260906051031 65 0 0.0 0.0 0.00 0.00 0.00 93 1018.9
20260906050534 65 0 0.0 2.0 0.00 0.00 0.00 94 1018.8
20260906050126 65 0 0.0 2.0 0.00 0.00 0.00 93 1018.9
20260906045530 65 352 0.0 0.0 0.00 0.00 0.00 93 1018.8
20260906045030 65 0 0.0 1.0 0.00 0.00 0.00 93 1018.7
20260906044555 66 0 0.0 1.0 0.00 0.00 0.00 94 1018.7
20260906044033 66 0 0.0 1.0 0.00 0.00 0.00 93 1018.5
20260906043530 66 0 0.0 1.0 0.00 0.00 0.00 93 1018.6
20260906043101 66 0 0.0 1.0 0.00 0.00 0.00 93 1018.6
20260906042531 66 0 0.0 1.0 0.00 0.00 0.00 93 1018.4
20260906042030 66 0 0.0 2.0 0.00 0.00 0.00 93 1018.4
20260906041549 66 0 0.0 2.0 0.00 0.00 0.00 93 1018.4
20260906041027 66 352 0.0 2.0 0.00 0.00 0.00 93 1018.3
20260906040528 66 0 0.0 2.0 0.00 0.00 0.00 93 1018.2
20260906040059 66 0 0.0 1.0 0.00 0.00 0.00 93 1018.0
20260906035530 66 0 0.0 1.0 0.00 0.00 0.00 92 1018.1
20260906035030 66 0 0.0 0.0 0.00 0.00 0.00 92 1018.1
20260906034553 67 0 0.0 0.0 0.00 0.00 0.00 92 1018.0
20260906034030 67 0 0.0 0.0 0.00 0.00 0.00 92 1018.0
20260906033529 67 0 0.0 0.0 0.00 0.00 0.00 92 1018.0
20260906033049 67 0 0.0 0.0 0.00 0.00 0.00 92 1018.0
20260906032530 67 0 0.0 0.0 0.00 0.00 0.00 92 1018.1
20260906032032 67 0 0.0 0.0 0.00 0.00 0.00 91 1018.1
20260906031556 67 0 0.0 0.0 0.00 0.00 0.00 91 1018.0
20260906031031 68 0 0.0 1.0 0.00 0.00 0.00 91 1018.0
20260906030533 68 0 0.0 1.0 0.00 0.00 0.00 91 1018.1
20260906030107 68 0 0.0 2.0 0.00 0.00 0.00 91 1018.0
20260906025530 68 0 0.0 2.0 0.00 0.00 0.00 91 1018.0
20260906025031 68 0 0.0 1.0 0.00 0.00 0.00 91 1018.0
20260906024550 68 0 0.0 1.0 0.00 0.00 0.00 90 1018.0
20260906024028 68 0 0.0 1.0 0.00 0.00 0.00 90 1018.0
20260906023533 69 0 0.0 1.0 0.00 0.00 0.00 90 1018.0
20260906023047 69 0 0.0 3.0 0.00 0.00 0.00 90 1017.9
20260906022529 69 36 0.0 3.0 0.00 0.00 0.00 90 1017.7
20260906022031 69 0 0.0 2.0 0.00 0.00 0.00 90 1017.6
20260906021607 69 0 0.0 1.0 0.00 0.00 0.00 89 1017.6
20260906021030 69 0 0.0 2.0 0.00 0.00 0.00 89 1017.4
20260906020531 69 0 0.0 2.0 0.00 0.00 0.00 89 1017.3
20260906020053 70 0 0.0 2.0 0.00 0.00 0.00 89 1017.2
20260906015529 70 0 0.0 2.0 0.00 0.00 0.00 89 1017.1
20260906015028 70 28 0.0 3.0 0.00 0.00 0.00 89 1017.1
20260906014554 70 0 0.0 3.0 0.00 0.00 0.00 88 1017.1
20260906014027 70 0 0.0 3.0 0.00 0.00 0.00 88 1017.1
20260906013530 71 31 1.0 5.0 0.00 0.00 0.00 88 1016.9
20260906013052 71 0 0.0 5.0 0.00 0.00 0.00 88 1016.8
20260906012529 71 0 0.0 5.0 0.00 0.00 0.00 88 1016.7
20260906012030 71 0 0.0 4.0 0.00 0.00 0.00 88 1016.8
20260906011550 71 0 0.0 4.0 0.00 0.00 0.00 88 1016.8
20260906011031 72 15 0.0 4.0 0.00 0.00 0.00 88 1016.9
20260906010528 72 0 0.0 4.0 0.00 0.00 0.00 88 1016.8
20260906010053 72 0 0.0 2.0 0.00 0.00 0.00 88 1016.7
20260906005533 72 15 0.0 4.0 0.00 0.00 0.00 88 1016.8
20260906005028 72 42 0.0 4.0 0.00 0.00 0.00 88 1016.8
20260906004559 72 0 0.0 4.0 0.00 0.00 0.00 88 1016.8
20260906004032 72 38 0.0 6.0 0.00 0.00 0.00 87 1016.6
20260906003528 73 347 1.0 6.0 0.00 0.00 0.00 87 1016.6
20260906003104 73 41 1.0 5.0 0.00 0.00 0.00 86 1016.7
20260906002541 73 0 1.0 6.0 0.00 0.00 0.00 86 1016.7
20260906002031 73 0 1.0 6.0 0.00 0.00 0.00 85 1016.8
20260906001553 74 0 2.0 6.0 0.00 0.00 0.00 85 1016.9
20260906001030 74 0 0.0 9.0 0.00 0.00 0.00 84 1017.0
20260906000533 74 26 2.0 9.0 0.00 0.00 0.00 84 1016.9
20260906000049 74 0 0.0 4.0 0.00 0.00 0.00 83 1017.0
20260905235530 75 0 0.0 4.0 0.00 0.00 0.00 83 1017.0
20260905235033 75 0 0.0 4.0 0.00 0.00 0.00 82 1017.1
20260905234554 75 32 0.0 4.0 0.00 0.00 0.00 81 1017.0
20260905234030 76 25 1.0 5.0 0.00 0.00 0.00 81 1016.9
20260905233530 76 48 1.0 5.0 0.00 0.00 0.00 81 1016.8
20260905233053 76 9 1.0 6.0 0.00 0.00 0.00 81 1016.8
20260905232528 76 0 1.0 6.0 0.00 0.00 0.00 81 1016.7
20260905232029 76 30 1.0 7.0 0.00 0.00 0.00 80 1016.9
20260905231548 76 57 2.0 7.0 0.00 0.00 0.00 80 1017.0
20260905231028 76 0 1.0 5.0 0.00 0.00 0.00 79 1016.9
20260905230528 77 84 1.0 5.0 0.00 0.00 0.00 79 1017.0
20260905230053 77 0 1.0 6.0 0.00 0.00 0.00 79 1017.0
20260905225529 77 28 2.0 7.0 0.00 0.00 0.00 78 1016.9
20260905225030 77 0 2.0 7.0 0.00 0.00 0.00 80 1016.9
20260905224551 77 342 1.0 6.0 0.00 0.00 0.00 80 1017.0
20260905224032 77 350 1.0 6.0 0.00 0.00 0.00 80 1017.0
20260905223528 77 36 1.0 7.0 0.00 0.00 0.00 79 1017.0
20260905223051 78 34 2.0 7.0 0.00 0.00 0.00 78 1016.7
20260905222531 78 34 1.0 5.0 0.00 0.00 0.00 78 1016.5
20260905222029 78 50 1.0 10.0 0.00 0.00 0.00 76 1016.6
20260905221600 78 0 2.0 10.0 0.00 0.00 0.00 76 1016.6
20260905221030 78 28 1.0 6.0 0.00 0.00 0.00 77 1016.6
20260905220531 78 26 1.0 7.0 0.00 0.00 0.00 77 1016.5
20260905220055 78 352 2.0 8.0 0.00 0.00 0.00 77 1016.5
20260905215530 78 9 2.0 8.0 0.00 0.00 0.00 75 1016.6
20260905215029 78 48 2.0 7.0 0.00 0.00 0.00 76 1016.7
20260905214602 78 347 2.0 8.0 0.00 0.00 0.00 77 1016.6
20260905214029 78 340 2.0 8.0 0.00 0.00 0.00 78 1016.6
20260905213531 78 40 2.0 7.0 0.00 0.00 0.00 78 1016.6
20260905213050 78 13 2.0 7.0 0.00 0.00 0.00 77 1016.6
20260905212529 78 18 2.0 9.0 0.00 0.00 0.00 77 1016.7
20260905212053 78 352 2.0 9.0 0.00 0.00 0.00 77 1016.7
20260905211548 79 41 2.0 8.0 0.00 0.00 0.00 75 1016.8
20260905211030 79 40 2.0 6.0 0.00 0.00 0.00 78 1016.6
20260905210533 79 352 1.0 6.0 0.00 0.00 0.00 78 1016.8
20260905210055 79 30 1.0 8.0 0.00 0.00 0.00 77 1016.7
20260905205530 79 63 3.0 8.0 0.00 0.00 0.00 77 1016.7
20260905205030 78 17 1.0 6.0 0.00 0.00 0.00 80 1016.6
20260905204552 78 33 2.0 9.0 0.00 0.00 0.00 79 1016.6
20260905204028 78 352 2.0 9.0 0.00 0.00 0.00 78 1016.5
20260905203528 79 344 3.0 9.0 0.00 0.00 0.00 79 1016.4
20260905203048 79 34 3.0 8.0 0.00 0.00 0.00 76 1016.3
20260905202529 79 9 1.0 9.0 0.00 0.00 0.00 78 1016.2
20260905202029 79 352 3.0 9.0 0.00 0.00 0.00 79 1016.5
20260905201605 78 360 3.0 9.0 0.00 0.00 0.00 79 1016.5
20260905201028 78 63 2.0 10.0 0.00 0.00 0.00 79 1016.6
20260905200530 77 26 2.0 10.0 0.00 0.00 0.00 80 1016.7
20260905200057 77 36 3.0 10.0 0.00 0.00 0.00 79 1016.6
20260905195529 78 26 1.0 6.0 0.00 0.00 0.00 80 1016.7
20260905195030 78 346 1.0 10.0 0.00 0.00 0.00 79 1016.7
20260905194555 78 42 2.0 10.0 0.00 0.00 0.00 78 1016.9
20260905194029 78 40 3.0 10.0 0.00 0.00 0.00 78 1016.7
20260905193528 78 305 3.0 10.0 0.00 0.00 0.00 79 1016.8
20260905193047 77 360 2.0 8.0 0.00 0.00 0.00 79 1016.9
20260905192528 77 30 1.0 10.0 0.00 0.00 0.00 78 1017.0
20260905192033 77 51 2.0 10.0 0.00 0.00 0.00 78 1016.9
20260905191612 77 23 2.0 10.0 0.00 0.00 0.00 78 1016.8
20260905191031 77 20 1.0 10.0 0.00 0.00 0.00 78 1016.9
20260905190530 77 76 2.0 10.0 0.00 0.00 0.00 79 1017.0
20260905190054 77 50 2.0 6.0 0.00 0.00 0.00 80 1016.9
20260905185531 76 53 1.0 7.0 0.00 0.00 0.00 80 1017.1
20260905185028 76 34 2.0 9.0 0.00 0.00 0.00 81 1017.0
20260905184606 76 13 2.0 9.0 0.00 0.00 0.00 80 1017.1
20260905184035 76 11 3.0 9.0 0.00 0.00 0.00 81 1017.1
20260905183531 76 31 2.0 11.0 0.00 0.00 0.00 82 1017.0
20260905183050 76 36 3.0 12.0 0.00 0.00 0.00 83 1017.1
20260905182528 76 33 3.0 12.0 0.00 0.00 0.00 83 1017.1
20260905182028 76 352 4.0 12.0 0.00 0.00 0.00 82 1017.1
20260905181555 75 30 1.0 7.0 0.00 0.00 0.00 84 1017.1
20260905181030 75 0 2.0 7.0 0.00 0.00 0.00 84 1017.3
20260905180532 75 32 2.0 7.0 0.00 0.00 0.00 85 1017.2
20260905180055 75 30 1.0 8.0 0.00 0.00 0.00 84 1017.2
20260905175530 75 38 3.0 8.0 0.00 0.02 0.00 84 1017.2
20260905175031 75 42 3.0 13.0 0.00 0.02 0.00 84 1017.3
20260905174554 75 22 3.0 13.0 0.00 0.02 0.00 83 1017.3
20260905174031 75 20 1.0 8.0 0.00 0.02 0.00 85 1017.4
20260905173530 75 155 2.0 4.0 0.00 0.02 0.00 85 1017.2
20260905173053 75 38 1.0 4.0 0.00 0.02 0.00 86 1017.2
20260905172530 75 0 0.0 4.0 0.00 0.02 0.00 86 1017.4
20260905172032 75 0 0.0 4.0 0.00 0.02 0.00 85 1017.3
20260905171547 75 15 1.0 4.0 0.00 0.02 0.00 85 1017.3
20260905171030 75 32 0.0 4.0 0.00 0.02 0.00 86 1017.4
20260905170529 75 25 1.0 5.0 0.00 0.02 0.00 86 1017.3
20260905170052 74 0 1.0 5.0 0.00 0.02 0.00 87 1017.3
20260905165529 74 0 0.0 5.0 0.00 0.02 0.00 88 1017.4
20260905165030 74 30 1.0 5.0 0.00 0.02 0.00 88 1017.5
20260905164552 73 19 1.0 7.0 0.00 0.02 0.00 88 1017.5
20260905164030 73 0 1.0 7.0 0.00 0.02 0.00 89 1017.4
20260905163530 73 30 1.0 4.0 0.00 0.02 0.00 89 1017.4
20260905163052 73 360 0.0 4.0 0.00 0.02 0.00 89 1017.4
20260905162528 73 0 0.0 8.0 0.00 0.02 0.00 89 1017.4
20260905162030 73 47 1.0 8.0 0.00 0.02 0.00 89 1017.4
20260905161548 73 360 1.0 5.0 0.00 0.02 0.00 90 1017.4
20260905161030 73 0 0.0 5.0 0.00 0.02 0.00 90 1017.3
20260905160530 72 39 2.0 5.0 0.00 0.02 0.00 90 1017.4
20260905160058 72 0 1.0 5.0 0.00 0.02 0.00 90 1017.4
20260905155531 72 0 2.0 4.0 0.00 0.02 0.00 90 1017.4
20260905155031 72 331 1.0 4.0 0.00 0.02 0.00 91 1017.3
20260905154555 72 20 1.0 6.0 0.00 0.02 0.00 91 1017.3
20260905154032 72 26 1.0 6.0 0.00 0.02 0.00 91 1017.3
20260905153531 71 0 1.0 5.0 0.00 0.02 0.00 91 1017.3
20260905153054 71 5 1.0 5.0 0.00 0.02 0.00 91 1017.4
20260905152528 71 39 1.0 5.0 0.00 0.02 0.00 91 1017.4
20260905152033 71 46 0.0 4.0 0.00 0.02 0.00 91 1017.3
20260905151558 71 43 0.0 8.0 0.00 0.02 0.00 91 1017.2
20260905151032 71 18 1.0 8.0 0.00 0.02 0.00 92 1017.1
20260905150532 71 0 1.0 6.0 0.00 0.02 0.00 92 1017.1
20260905150052 71 22 1.0 8.0 0.00 0.02 0.00 92 1017.1
20260905145531 71 0 1.0 8.0 0.00 0.03 0.00 92 1016.9
20260905145030 71 0 1.0 6.0 0.00 0.03 0.00 92 1016.7
20260905144552 71 30 2.0 6.0 0.00 0.03 0.00 92 1016.7
20260905144028 71 27 2.0 8.0 0.00 0.03 0.00 92 1016.7
20260905143530 71 42 2.0 9.0 0.00 0.03 0.00 92 1016.7